Theta_e
317 316 317 317 317 317 316 316 316 316 316 315 315 315 315 315 316 316 316 317 317 317 316 317 318 320 316 309 311 322 353 352 339 327 319 315 311 310 309 314 317 315 320 324 327 325 323
318 316 316 316 316 316 316 315 315 316 315 315 315 316 316 316 316 317 317 316 316 316 315 317 319 320 314 302 315 319 330 331 327 323 317 316 314 316 313 315 313 317 318 321 321 324 324
318 317 316 316 316 316 315 315 315 315 315 315 316 316 315 316 316 315 316 315 315 314 315 317 320 319 312 305 316 322 321 324 323 320 315 317 319 315 314 312 318 316 312 314 316 315 322
319 317 317 317 317 316 316 315 315 315 315 315 315 315 315 315 316 315 314 313 314 314 316 318 323 317 307 317 317 315 315 316 323 320 320 319 319 315 312 315 315 310 307 302 313 316 318
318 317 317 317 317 316 316 316 315 315 315 315 315 315 315 315 314 313 312 312 315 318 319 324 318 315 310 328 317 317 317 316 318 319 319 323 316 311 311 305 302 303 300 303 308 317 317
318 318 317 317 316 316 316 315 315 315 314 314 314 314 313 313 313 311 311 311 314 318 321 325 322 312 319 315 319 320 320 320 316 314 314 314 309 304 304 300 295 298 300 304 306 313 316
318 318 317 317 317 316 316 315 315 314 314 314 314 313 313 312 312 310 307 305 306 306 315 314 313 311 312 317 323 319 320 317 314 310 304 308 302 300 302 304 305 306 305 305 309 317 318
318 318 317 317 317 317 316 315 315 315 314 314 313 313 312 312 311 309 307 306 307 306 300 307 307 310 318 321 315 317 321 311 309 305 308 304 301 306 309 308 306 306 304 304 310 317 317
318 318 317 317 317 316 316 315 315 314 314 313 313 312 312 311 309 309 303 303 310 309 297 302 306 306 307 310 311 314 317 313 309 305 306 301 305 311 308 306 305 304 303 305 306 315 318
318 317 317 317 316 316 316 316 315 314 314 313 313 312 311 309 306 303 304 312 312 310 292 299 303 306 308 308 305 316 320 314 310 305 306 304 310 308 306 304 305 301 309 309 308 307 306
317 317 317 317 316 316 316 315 315 314 314 313 313 312 310 309 302 302 309 311 310 305 286 307 307 314 308 304 307 311 320 312 308 308 304 302 306 306 304 304 306 304 310 309 309 306 307
317 316 316 316 316 316 315 314 314 314 313 313 312 310 309 306 305 306 310 309 306 292 287 303 309 306 303 304 305 309 312 313 311 308 308 307 311 308 307 309 308 309 307 307 307 305 299
316 316 316 315 315 314 314 313 313 313 312 312 310 308 306 307 300 308 308 305 290 287 304 304 304 307 304 302 303 304 304 303 300 296 298 303 306 310 310 305 306 305 297 295 294 296 294
315 314 314 314 313 313 313 313 313 313 312 311 308 306 307 309 310 309 306 295 286 297 297 305 304 306 303 305 304 304 303 300 304 301 297 295 295 306 310 305 301 301 300 295 289 293 296
314 314 314 313 313 313 313 313 313 312 311 309 307 304 304 307 311 309 300 289 291 296 301 301 300 300 302 306 306 304 303 302 303 304 298 297 297 309 310 310 307 300 298 302 293 297 294
313 313 313 313 313 312 312 312 312 312 311 309 302 301 303 310 313 306 296 290 295 301 300 299 292 298 294 297 299 303 302 307 306 308 308 302 296 306 310 310 309 304 303 296 298 290 291
313 313 313 313 313 312 312 312 311 311 310 308 302 297 304 309 309 300 291 292 296 301 302 298 296 296 297 296 298 297 301 308 310 310 309 305 301 301 305 303 302 302 300 298 297 298 292
313 312 312 312 312 312 312 312 311 310 308 305 299 291 305 306 293 298 293 297 299 300 303 301 301 299 297 298 296 297 298 301 311 311 305 306 301 296 300 307 310 306 300 298 295 290 295
312 312 312 312 312 312 312 311 310 309 309 302 294 294 304 303 288 291 296 297 299 297 297 297 297 301 302 298 295 299 300 306 307 306 307 307 301 294 297 301 306 304 304 301 301 295 293
311 311 311 311 311 312 311 311 310 309 309 303 295 288 295 298 298 293 292 292 292 298 297 298 298 299 297 296 300 297 299 305 307 306 320 313 302 299 295 297 301 301 304 305 300 296 296
310 310 310 311 310 311 311 310 310 309 308 304 297 291 294 287 291 291 293 293 290 290 296 296 295 295 293 290 295 295 299 298 302 309 307 302 300 302 303 305 305 303 304 304 301 300 296
311 310 310 311 310 310 310 310 310 309 308 301 292 291 294 290 292 291 291 290 290 291 292 291 292 295 294 293 294 291 294 295 294 299 297 300 298 302 300 305 304 303 305 307 305 304 303
310 310 310 310 310 310 310 310 310 309 306 299 301 300 294 290 289 288 289 290 290 292 294 296 294 294 292 295 298 298 298 298 298 296 295 296 297 298 294 302 302 298 303 305 306 307 305
311 310 310 310 310 310 309 310 310 309 307 303 302 299 292 286 288 287 290 291 290 292 291 294 296 293 296 302 301 301 300 300 301 301 301 297 297 299 294 298 292 300 309 310 308 309 308
311 310 310 310 310 310 309 310 310 310 309 304 304 299 292 286 289 289 290 291 293 294 292 293 296 298 302 299 292 292 293 295 298 301 301 302 298 296 293 295 297 304 307 306 304 305 309
311 311 311 310 310 309 309 309 310 310 310 306 305 305 297 287 287 293 290 291 288 290 291 293 298 302 301 296 291 287 287 291 293 298 303 302 302 299 294 291 291 301 310 318 314 302 320
310 310 310 310 309 309 309 310 310 310 310 307 305 307 297 288 291 293 290 290 294 293 290 292 295 293 298 292 287 285 286 295 290 292 296 297 301 299 297 293 297 308 315 316 301 305 320
310 310 310 309 309 309 309 309 309 309 309 308 304 308 300 292 293 295 296 293 293 293 289 294 292 292 292 289 288 289 288 293 293 296 296 296 297 296 299 295 294 318 316 308 314 320 319
310 310 310 310 310 309 309 308 308 308 308 308 299 309 308 298 295 300 300 301 299 298 295 295 294 293 294 294 294 295 291 295 295 292 303 296 301 301 301 304 317 316 312 313 319 320 323
Wind_Speed
19 20 20 20 19 19 21 21 21 21 23 24 25 24 24 25 26 26 25 24 23 23 23 21 18 16 9 5 16 7 4 3 6 5 12 14 13 12 13 14 16 13 14 18 17 12 15
17 18 19 19 19 20 21 21 22 22 22 23 23 23 24 24 25 26 26 26 24 23 23 20 15 9 4 11 9 15 15 8 10 10 9 13 9 14 9 15 13 16 15 16 10 22 15
17 17 17 17 17 17 19 20 21 22 22 23 23 24 24 24 26 27 28 28 27 25 22 18 11 6 7 24 6 2 11 12 10 10 10 11 14 11 7 12 16 15 14 16 12 4 11
16 16 17 16 16 16 17 19 20 20 21 22 23 25 27 27 27 28 29 29 30 30 21 14 6 6 12 10 17 19 15 18 12 11 11 10 13 11 7 9 14 13 9 6 10 10 8
16 17 17 17 17 18 18 19 20 20 20 21 23 24 27 29 29 30 31 33 32 22 10 6 5 4 13 12 9 15 12 14 11 9 9 13 8 10 9 7 7 7 9 11 14 9 7
16 17 17 17 18 18 18 19 19 20 20 21 23 24 26 29 31 30 32 34 17 0 4 9 8 3 10 14 10 12 17 19 11 9 11 8 6 7 8 6 10 9 7 12 14 10 16
17 17 19 19 18 18 18 18 19 20 21 22 23 25 28 30 32 31 21 9 4 0 5 8 8 8 19 11 7 12 13 11 9 9 12 11 8 16 12 14 11 14 14 16 19 10 10
17 18 19 19 18 18 19 20 21 22 22 23 24 25 27 31 33 34 10 4 11 12 14 15 24 28 28 19 13 13 15 12 13 14 9 10 17 11 12 11 17 20 19 20 15 11 11
18 17 18 18 19 19 19 19 20 21 23 24 24 24 27 30 37 14 11 12 14 12 8 16 24 18 23 18 22 18 13 11 10 14 14 17 10 17 18 17 18 21 20 17 11 8 8
17 17 17 18 18 19 18 19 20 21 21 22 24 26 25 28 10 11 10 18 19 14 6 11 9 11 13 14 13 27 18 11 12 16 15 13 17 19 22 21 19 19 22 22 20 13 8
17 17 18 18 18 19 19 19 20 22 22 23 24 25 23 15 9 7 9 17 19 8 7 7 8 6 12 22 8 24 23 13 18 17 10 18 16 20 19 22 19 20 14 21 22 15 7
18 18 19 19 19 19 19 19 20 21 22 23 24 25 24 10 5 15 16 19 8 2 12 9 8 9 13 20 14 4 28 21 11 15 15 17 10 17 18 15 21 15 14 16 18 13 11
17 18 19 19 18 19 20 21 22 22 23 24 27 27 22 11 7 8 12 6 2 9 9 8 6 11 14 14 22 23 20 26 23 16 19 16 20 21 16 17 13 18 8 11 11 12 9
16 18 18 18 18 19 19 20 20 21 22 22 24 31 12 11 9 13 4 3 12 9 14 19 9 13 15 14 17 21 15 23 24 17 7 14 18 23 14 20 15 16 16 12 13 12 9
17 18 18 18 18 19 19 19 19 20 21 20 26 8 10 9 13 9 6 11 7 10 10 14 20 13 16 15 12 18 19 20 21 23 19 15 17 9 23 20 17 12 19 15 5 8 6
18 19 19 19 19 19 19 18 19 19 21 22 10 8 11 11 11 8 9 16 8 13 24 20 10 9 12 17 17 17 20 19 22 27 22 12 7 18 19 22 17 20 7 12 14 15 17
19 19 20 20 19 19 18 18 17 17 18 24 4 7 12 7 10 7 17 12 17 22 22 11 16 25 24 25 19 22 18 23 25 23 26 23 15 18 10 17 22 13 16 11 7 12 12
20 20 20 20 20 20 19 18 16 14 15 11 6 6 11 14 7 6 14 16 19 23 23 25 20 25 26 26 28 25 25 20 14 27 21 22 15 16 24 18 21 21 10 12 9 6 4
20 21 21 21 21 20 20 18 15 12 11 6 6 9 11 7 5 9 12 20 22 22 21 23 26 22 20 24 26 22 25 27 24 21 23 14 18 10 14 14 17 21 19 11 17 5 13
21 21 22 22 21 20 19 17 16 11 9 3 4 6 7 10 6 14 15 12 15 18 21 22 19 19 17 20 19 20 24 23 25 24 17 11 14 27 18 12 6 8 22 20 16 15 14
23 24 24 22 21 22 20 18 16 12 5 2 3 5 11 9 12 21 15 6 16 14 10 13 13 17 22 15 23 18 15 19 22 24 14 5 19 16 20 16 16 24 16 24 22 18 14
23 23 23 23 23 21 19 17 17 11 3 3 3 4 5 11 13 18 17 15 16 20 11 15 18 11 19 11 18 20 21 15 13 18 16 15 12 10 10 8 24 21 18 19 24 23 19
23 23 23 23 22 20 19 17 15 11 6 3 3 4 3 4 10 10 11 18 18 18 6 9 19 12 15 16 8 18 20 23 23 26 23 12 7 4 9 7 6 16 26 19 11 17 16
23 23 23 23 22 20 19 17 14 12 9 3 2 1 4 7 9 13 20 21 18 22 15 13 15 12 15 19 14 19 19 22 25 25 18 19 16 9 6 7 10 5 10 9 14 10 11
22 24 24 23 21 18 18 18 15 13 10 5 3 3 2 5 9 17 17 18 13 18 15 19 14 12 10 11 5 9 11 18 24 22 18 14 11 7 6 10 4 9 9 5 7 14 8
22 23 22 19 17 17 16 16 15 12 10 3 5 5 2 2 7 13 16 16 13 8 11 13 17 13 4 3 1 4 5 4 9 11 13 13 11 8 3 8 20 4 6 5 3 2 4
21 21 20 18 17 16 17 16 14 13 11 3 3 5 2 3 7 10 10 9 9 6 5 9 8 10 7 5 3 3 1 8 7 8 6 5 2 6 6 8 5 5 4 4 7 6 4
21 20 18 17 16 16 16 15 15 12 11 3 4 3 5 5 10 15 20 18 12 11 9 4 5 4 4 7 5 5 4 4 6 7 10 7 5 1 1 5 4 6 6 5 6 3 4
19 20 17 15 15 15 14 13 11 11 11 7 6 3 2 6 7 15 20 22 22 23 15 3 5 2 4 5 3 1 4 2 4 5 3 4 5 7 5 3 2 3 8 4 7 3 4
Wind_Direction
7 6 5 4 2 0 359 357 355 354 351 350 347 342 338 336 333 328 324 319 315 314 315 314 316 321 328 230 245 224 165 147 146 185 209 218 230 236 238 255 266 253 220 202 176 208 206
3 3 1 0 358 358 356 354 352 349 347 344 341 338 335 332 329 325 320 317 313 311 310 309 310 312 243 246 249 261 167 162 229 201 213 216 227 229 247 257 263 274 288 236 209 210 169
358 357 357 354 353 351 351 349 349 346 343 340 337 334 331 328 326 322 317 314 310 306 303 300 296 236 253 238 268 148 185 189 205 226 228 221 242 255 254 264 273 283 293 294 267 215 143
349 347 348 348 346 343 343 344 344 341 339 337 335 331 329 326 324 321 317 311 306 300 291 281 243 217 251 255 236 252 242 259 206 218 212 230 225 249 257 282 282 277 290 291 268 185 210
350 348 345 344 341 341 341 340 340 338 337 334 332 330 326 324 323 321 318 312 302 290 254 199 180 236 265 260 217 239 223 227 206 237 214 227 228 222 265 256 293 282 257 268 268 231 145
343 342 340 340 339 339 339 338 336 335 334 332 330 328 325 321 320 322 320 309 287 215 178 182 267 278 253 253 226 201 224 214 200 214 238 237 227 233 219 208 222 237 243 258 253 261 154
336 336 338 336 335 336 335 334 332 332 332 331 330 329 325 321 319 320 331 338 319 184 246 227 191 242 293 272 246 197 186 197 190 221 211 217 209 224 219 217 231 245 244 248 249 198 81
328 326 327 327 328 328 329 330 332 333 332 332 331 330 327 321 319 315 301 266 291 291 292 251 251 242 251 262 282 225 179 175 195 216 194 220 223 221 236 225 223 245 254 263 283 199 107
321 322 322 322 323 323 323 325 328 328 328 329 329 329 328 324 315 305 317 267 276 317 278 281 234 231 220 227 243 250 179 194 193 215 206 218 226 214 232 232 223 227 243 258 255 235 111
327 323 322 322 324 324 319 320 323 324 324 324 325 327 330 337 325 340 289 332 342 329 288 269 209 241 206 218 246 237 209 195 211 214 223 231 221 218 216 231 225 225 230 249 260 265 195
330 329 327 325 325 326 326 321 321 323 324 324 323 323 325 326 287 292 316 325 312 308 301 238 192 139 153 177 138 218 227 215 210 209 190 226 213 223 229 221 232 233 221 236 252 253 150
331 333 332 331 329 328 327 323 321 322 323 322 320 319 324 317 285 256 294 303 299 243 245 273 144 163 139 202 234 21 198 227 233 224 233 239 235 232 236 237 220 242 230 247 252 254 239
334 333 332 332 333 331 329 327 324 322 323 323 319 317 310 278 241 315 336 304 227 227 270 233 180 167 196 181 214 238 226 206 210 206 222 236 236 248 230 239 225 217 218 237 250 241 233
334 332 330 330 328 326 323 322 321 318 317 320 314 312 275 243 230 246 273 290 234 234 227 301 316 299 202 207 204 219 186 201 211 222 191 217 240 229 228 220 223 212 213 222 220 228 251
331 329 329 329 327 325 323 323 320 319 317 322 312 301 277 250 234 211 236 225 209 198 283 350 341 295 267 204 196 208 222 201 202 205 221 202 230 241 221 240 212 232 215 224 265 255 268
328 327 327 325 325 325 325 325 324 326 322 323 316 294 260 258 246 184 226 232 244 271 325 338 316 290 333 321 305 202 214 212 202 202 214 248 256 220 236 218 237 207 194 207 222 227 243
328 326 324 322 320 320 322 324 327 327 324 314 267 297 273 302 277 209 227 227 254 278 288 296 293 287 289 296 291 290 272 216 219 202 202 214 236 257 243 210 211 228 218 228 191 220 232
331 328 324 321 318 318 317 318 323 329 329 315 297 291 288 348 314 230 236 248 269 271 270 278 279 288 287 293 293 286 275 272 261 202 213 200 209 237 251 254 210 210 206 202 216 262 255
328 325 324 323 322 322 319 317 319 325 344 321 304 289 272 267 260 274 285 270 264 274 284 282 284 281 287 287 286 278 284 289 278 290 217 193 209 220 251 268 248 216 209 204 219 158 233
324 325 325 324 323 321 321 319 313 318 328 309 295 308 300 340 293 271 286 314 330 324 311 332 314 330 335 310 313 298 298 289 292 274 291 305 193 210 219 227 228 230 206 204 195 218 234
326 325 322 320 319 321 319 313 307 309 314 279 265 279 317 308 326 326 312 235 298 304 312 328 323 341 330 312 315 306 340 336 323 298 279 281 233 212 216 211 212 237 248 203 209 214 204
322 320 321 319 315 314 314 311 307 304 263 233 274 301 337 301 300 316 314 297 336 324 326 309 309 315 321 291 289 317 325 327 290 327 338 325 271 157 201 206 224 240 242 238 209 217 228
318 317 317 316 316 313 314 310 305 294 163 255 227 274 263 299 310 302 294 326 318 329 290 313 308 302 309 305 298 276 278 276 269 276 289 280 315 163 207 165 239 251 229 241 252 217 200
318 317 316 316 316 312 312 310 306 295 196 210 265 282 254 281 278 290 299 298 311 315 302 298 299 285 266 333 290 272 256 262 270 268 247 266 286 262 157 127 211 242 185 219 233 249 215
325 322 319 315 318 313 310 310 300 296 284 205 227 246 214 260 279 291 295 312 316 301 323 309 317 338 344 318 316 303 288 272 275 253 255 230 256 270 146 185 288 276 262 222 228 251 236
331 334 333 327 322 318 313 316 310 293 283 255 234 217 233 272 240 297 307 297 291 318 312 316 330 331 336 221 153 290 252 339 294 314 209 235 241 225 155 181 219 140 236 101 70 196 25
334 334 337 337 330 323 318 313 311 307 288 250 253 191 183 236 249 255 279 321 311 294 272 304 343 327 2 214 171 225 259 297 265 313 309 225 230 231 183 204 265 158 247 102 134 208 53
336 331 326 328 330 329 325 319 319 321 318 267 261 204 207 227 259 264 274 275 281 269 266 287 353 351 251 220 189 180 224 267 301 325 318 314 341 284 12 147 242 348 54 166 207 145 128
335 343 340 335 330 332 331 338 324 319 316 311 278 290 248 248 271 286 275 276 270 265 271 183 214 134 292 295 295 79 229 194 338 313 14 327 28 301 352 85 109 314 157 256 316 319 49